SAA579 FAOR-FALE

Flight info

Callsign SAA579
Flight time 0h 46m
Altitude 31000
Route APDAK1B APDAK UQ48 APMAT APMAT1B
Aircraft A320/M-SDE3FGHIRWY/LB1

Departure

Time 2026-05-06 20:34
Airport O.R. Tambo International Airport (FAOR)

Arrival

Time 2026-05-06 21:20
Airport King Shaka International Airport (FALE)
Time Latitude Longitude Altitude Speed Heading
2026-05-06 19:52 -26.13686 28.23149 5547 ft 0 kts
2026-05-06 20:23 -26.13708 28.23145 5547 ft 4 kts 14°
2026-05-06 20:23 -26.13732 28.23136 5547 ft 4 kts 37°
2026-05-06 20:23 -26.13746 28.23115 5547 ft 2 kts 94°
2026-05-06 20:24 -26.13746 28.23113 5547 ft 0 kts 96°
2026-05-06 20:28 -26.13746 28.23115 5549 ft 1 kts 96°
2026-05-06 20:28 -26.13748 28.23134 5547 ft 4 kts 96°
2026-05-06 20:28 -26.13751 28.23170 5550 ft 6 kts 96°
2026-05-06 20:28 -26.13756 28.23223 5551 ft 8 kts 96°
2026-05-06 20:29 -26.13764 28.23289 5547 ft 10 kts 106°
2026-05-06 20:29 -26.13826 28.23322 5550 ft 11 kts 186°
2026-05-06 20:29 -26.13908 28.23298 5548 ft 13 kts 195°
2026-05-06 20:29 -26.13987 28.23274 5553 ft 12 kts 195°
2026-05-06 20:30 -26.14076 28.23247 5552 ft 13 kts 195°
2026-05-06 20:30 -26.14256 28.23201 5555 ft 13 kts 172°
2026-05-06 20:30 -26.14327 28.23221 5559 ft 8 kts 164°
2026-05-06 20:31 -26.14381 28.23235 5563 ft 9 kts 167°
2026-05-06 20:31 -26.14454 28.23254 5562 ft 11 kts 166°
2026-05-06 20:31 -26.14516 28.23274 5563 ft 9 kts 164°
2026-05-06 20:31 -26.14570 28.23290 5565 ft 8 kts 163°
2026-05-06 20:32 -26.14605 28.23340 5567 ft 10 kts 104°
2026-05-06 20:32 -26.14622 28.23427 5567 ft 12 kts 81°
2026-05-06 20:32 -26.14572 28.23458 5566 ft 0 kts 15°
2026-05-06 20:33 -26.14557 28.23462 5566 ft 20 kts 15°
2026-05-06 20:33 -26.14343 28.23528 5567 ft 76 kts 15°
2026-05-06 20:33 -26.13625 28.23751 5557 ft 142 kts 15°
2026-05-06 20:33 -26.12391 28.24134 5641 ft 190 kts 16°
2026-05-06 20:34 -26.11060 28.24571 6484 ft 189 kts 15°
2026-05-06 20:34 -26.09772 28.24977 7377 ft 187 kts 15°
2026-05-06 20:34 -26.08552 28.25367 8098 ft 179 kts 15°
2026-05-06 20:34 -26.07282 28.25762 8297 ft 198 kts 13°
2026-05-06 20:35 -26.05890 28.26175 8539 ft 216 kts 13°
2026-05-06 20:35 -26.04370 28.26627 8747 ft 238 kts 13°
2026-05-06 20:35 -26.02601 28.27169 9034 ft 261 kts 13°
2026-05-06 20:35 -26.00899 28.27859 9421 ft 280 kts 30°
2026-05-06 20:36 -25.99506 28.29512 9908 ft 297 kts 64°
2026-05-06 20:36 -25.98959 28.31778 10468 ft 310 kts 83°
2026-05-06 20:36 -25.98854 28.34230 10821 ft 329 kts 90°
2026-05-06 20:36 -25.98913 28.36882 11125 ft 347 kts 92°
2026-05-06 20:37 -25.98993 28.39593 11653 ft 355 kts 95°
2026-05-06 20:37 -25.99479 28.42380 12293 ft 360 kts 107°
2026-05-06 20:37 -26.00374 28.44997 12947 ft 365 kts 117°
2026-05-06 20:37 -26.01747 28.47465 13558 ft 367 kts 130°
2026-05-06 20:38 -26.03518 28.49542 14150 ft 369 kts 137°
2026-05-06 20:38 -26.05406 28.51587 14747 ft 374 kts 138°
2026-05-06 20:38 -26.06713 28.52978 15154 ft 377 kts 138°
2026-05-06 20:38 -26.08635 28.55009 15724 ft 380 kts 138°
2026-05-06 20:39 -26.10570 28.57053 16281 ft 385 kts 138°
2026-05-06 20:39 -26.12514 28.59108 16827 ft 389 kts 138°
2026-05-06 20:39 -26.14494 28.61207 17373 ft 393 kts 138°
2026-05-06 20:39 -26.16561 28.63405 17932 ft 397 kts 138°
2026-05-06 20:40 -26.18595 28.65575 18479 ft 401 kts 138°
2026-05-06 20:40 -26.20617 28.67740 19000 ft 406 kts 137°
2026-05-06 20:40 -26.22666 28.69935 19525 ft 411 kts 137°
2026-05-06 20:40 -26.24742 28.72161 20009 ft 416 kts 137°
2026-05-06 20:41 -26.26837 28.74410 20524 ft 421 kts 137°
2026-05-06 20:41 -26.28985 28.76712 21015 ft 425 kts 137°
2026-05-06 20:41 -26.31133 28.79015 21481 ft 430 kts 137°
2026-05-06 20:41 -26.33300 28.81339 21942 ft 434 kts 137°
2026-05-06 20:42 -26.35519 28.83721 22416 ft 437 kts 137°
2026-05-06 20:42 -26.37708 28.86074 22862 ft 441 kts 137°
2026-05-06 20:42 -26.39928 28.88462 23304 ft 445 kts 137°
2026-05-06 20:42 -26.42173 28.90873 23736 ft 449 kts 137°
2026-05-06 20:43 -26.44432 28.93295 24148 ft 452 kts 137°
2026-05-06 20:43 -26.46709 28.95740 24554 ft 456 kts 137°
2026-05-06 20:43 -26.48999 28.98208 24948 ft 459 kts 137°
2026-05-06 20:43 -26.51309 29.00700 25334 ft 462 kts 137°
2026-05-06 20:44 -26.53626 29.03204 25720 ft 465 kts 137°
2026-05-06 20:44 -26.55960 29.05727 26101 ft 468 kts 136°
2026-05-06 20:44 -26.58298 29.08281 26477 ft 471 kts 136°
2026-05-06 20:44 -26.60639 29.10868 26830 ft 474 kts 136°
2026-05-06 20:45 -26.62985 29.13478 27169 ft 477 kts 136°
2026-05-06 20:45 -26.65405 29.16178 27512 ft 480 kts 136°
2026-05-06 20:45 -26.67782 29.18828 27836 ft 483 kts 136°
2026-05-06 20:45 -26.70199 29.21516 28172 ft 485 kts 136°
2026-05-06 20:46 -26.72606 29.24187 28497 ft 488 kts 136°
2026-05-06 20:46 -26.75021 29.26862 28816 ft 491 kts 136°
2026-05-06 20:46 -26.77469 29.29578 29134 ft 493 kts 136°
2026-05-06 20:46 -26.79840 29.32215 29435 ft 496 kts 136°
2026-05-06 20:47 -26.82291 29.34945 29737 ft 499 kts 136°
2026-05-06 20:47 -26.84752 29.37686 30039 ft 501 kts 136°
2026-05-06 20:47 -26.87281 29.40500 30336 ft 504 kts 136°
2026-05-06 20:47 -26.89771 29.43271 30624 ft 506 kts 136°
2026-05-06 20:48 -26.92400 29.45898 30953 ft 506 kts 144°
2026-05-06 20:48 -26.95333 29.48235 31070 ft 500 kts 147°
2026-05-06 20:48 -26.98149 29.50439 31070 ft 488 kts 147°
2026-05-06 20:49 -27.03683 29.54749 31058 ft 482 kts 147°
2026-05-06 20:49 -27.09240 29.59082 31034 ft 482 kts 147°
2026-05-06 20:50 -27.14742 29.63391 31026 ft 482 kts 147°
2026-05-06 20:50 -27.20252 29.67716 31020 ft 483 kts 146°
2026-05-06 20:51 -27.24862 29.71338 31015 ft 483 kts 146°
2026-05-06 20:51 -27.30373 29.75671 31012 ft 483 kts 146°
2026-05-06 20:52 -27.35892 29.80019 31011 ft 484 kts 146°
2026-05-06 20:52 -27.41413 29.84367 31006 ft 484 kts 146°
2026-05-06 20:53 -27.46971 29.88749 31001 ft 484 kts 146°
2026-05-06 20:53 -27.52492 29.93116 30994 ft 485 kts 146°
2026-05-06 20:54 -27.58020 29.97495 30988 ft 485 kts 146°
2026-05-06 20:54 -27.63554 30.01869 30981 ft 485 kts 146°
2026-05-06 20:55 -27.69076 30.06238 30975 ft 485 kts 146°
2026-05-06 20:55 -27.74594 30.10633 30966 ft 486 kts 145°
2026-05-06 20:56 -27.80114 30.15051 30956 ft 486 kts 145°
2026-05-06 20:56 -27.85634 30.19480 30943 ft 486 kts 145°
2026-05-06 20:57 -27.91191 30.23921 30930 ft 486 kts 146°
2026-05-06 20:57 -27.96699 30.28328 30921 ft 486 kts 145°
2026-05-06 20:58 -28.02222 30.32753 30913 ft 486 kts 145°
2026-05-06 20:58 -28.07732 30.37181 30810 ft 483 kts 145°
2026-05-06 20:58 -28.10467 30.39377 30246 ft 481 kts 145°
2026-05-06 20:59 -28.13230 30.41593 29731 ft 479 kts 145°
2026-05-06 20:59 -28.15640 30.43528 29294 ft 477 kts 145°
2026-05-06 20:59 -28.18426 30.45773 28769 ft 474 kts 145°
2026-05-06 20:59 -28.21104 30.47937 28288 ft 471 kts 145°
2026-05-06 21:00 -28.23766 30.50091 27809 ft 468 kts 144°
2026-05-06 21:00 -28.26413 30.52235 27331 ft 466 kts 144°
2026-05-06 21:00 -28.29079 30.54395 26834 ft 464 kts 145°
2026-05-06 21:00 -28.31705 30.56516 26399 ft 460 kts 145°
2026-05-06 21:01 -28.34292 30.58600 25928 ft 459 kts 145°
2026-05-06 21:01 -28.36906 30.60709 25534 ft 455 kts 145°
2026-05-06 21:01 -28.39467 30.62781 24977 ft 446 kts 145°
2026-05-06 21:01 -28.41961 30.64801 24540 ft 433 kts 144°
2026-05-06 21:02 -28.44414 30.66792 24079 ft 421 kts 144°
2026-05-06 21:02 -28.46753 30.68692 23624 ft 409 kts 144°
2026-05-06 21:02 -28.49034 30.70543 23187 ft 396 kts 144°
2026-05-06 21:02 -28.51244 30.72339 22743 ft 386 kts 144°
2026-05-06 21:03 -28.53438 30.74125 22310 ft 376 kts 144°
2026-05-06 21:03 -28.55578 30.75870 21887 ft 373 kts 144°
2026-05-06 21:03 -28.57684 30.77591 21466 ft 372 kts 144°
2026-05-06 21:03 -28.59821 30.79333 21045 ft 370 kts 144°
2026-05-06 21:04 -28.61903 30.81028 20618 ft 371 kts 144°
2026-05-06 21:04 -28.64028 30.82758 20179 ft 372 kts 144°
2026-05-06 21:04 -28.66136 30.84476 19735 ft 372 kts 145°
2026-05-06 21:04 -28.68248 30.86197 19308 ft 374 kts 143°
2026-05-06 21:05 -28.70392 30.87942 18864 ft 374 kts 144°
2026-05-06 21:05 -28.72539 30.89693 18409 ft 374 kts 143°
2026-05-06 21:05 -28.74680 30.91443 17955 ft 375 kts 144°
2026-05-06 21:05 -28.76789 30.93172 17515 ft 373 kts 144°
2026-05-06 21:06 -28.78210 30.94336 17249 ft 372 kts 144°
2026-05-06 21:06 -28.80423 30.96124 16894 ft 368 kts 145°
2026-05-06 21:06 -28.82561 30.97770 16546 ft 364 kts 147°
2026-05-06 21:06 -28.84660 30.99341 16179 ft 362 kts 147°
2026-05-06 21:07 -28.86774 31.00909 15841 ft 359 kts 147°
2026-05-06 21:07 -28.88886 31.02479 15489 ft 356 kts 147°
2026-05-06 21:07 -28.90903 31.03989 15147 ft 354 kts 147°
2026-05-06 21:07 -28.93083 31.05649 14769 ft 352 kts 146°
2026-05-06 21:08 -28.95112 31.07190 14420 ft 350 kts 147°
2026-05-06 21:08 -28.97167 31.08740 14068 ft 347 kts 147°
2026-05-06 21:08 -28.99150 31.10236 13756 ft 345 kts 147°
2026-05-06 21:08 -29.01171 31.11757 13439 ft 342 kts 147°
2026-05-06 21:09 -29.03130 31.13234 13087 ft 340 kts 147°
2026-05-06 21:09 -29.05118 31.14740 12740 ft 338 kts 147°
2026-05-06 21:09 -29.07076 31.16227 11949 ft 350 kts 147°
2026-05-06 21:09 -29.09164 31.17818 11261 ft 357 kts 147°
2026-05-06 21:10 -29.11225 31.19386 11088 ft 346 kts 147°
2026-05-06 21:10 -29.13216 31.20900 10704 ft 343 kts 147°
2026-05-06 21:10 -29.15202 31.22409 10254 ft 343 kts 147°
2026-05-06 21:10 -29.17195 31.23925 9818 ft 342 kts 147°
2026-05-06 21:11 -29.19194 31.25449 9391 ft 343 kts 146°
2026-05-06 21:11 -29.21158 31.26949 8930 ft 342 kts 147°
2026-05-06 21:11 -29.23159 31.28470 8493 ft 340 kts 146°
2026-05-06 21:11 -29.25122 31.29962 8038 ft 337 kts 146°
2026-05-06 21:12 -29.27072 31.31445 7598 ft 335 kts 147°
2026-05-06 21:12 -29.28977 31.32895 7173 ft 334 kts 147°
2026-05-06 21:12 -29.30931 31.34369 6718 ft 333 kts 150°
2026-05-06 21:12 -29.33105 31.35154 6487 ft 315 kts 180°
2026-05-06 21:13 -29.35140 31.34666 6162 ft 291 kts 211°
2026-05-06 21:13 -29.36788 31.33428 5800 ft 277 kts 220°
2026-05-06 21:13 -29.38284 31.32105 5441 ft 266 kts 222°
2026-05-06 21:13 -29.39702 31.30779 5137 ft 254 kts 224°
2026-05-06 21:14 -29.41004 31.29491 4880 ft 240 kts 223°
2026-05-06 21:14 -29.42280 31.28340 4580 ft 232 kts 220°
2026-05-06 21:14 -29.43546 31.27243 4263 ft 224 kts 220°
2026-05-06 21:14 -29.44784 31.26174 3967 ft 215 kts 221°
2026-05-06 21:15 -29.45927 31.25182 3730 ft 203 kts 220°
2026-05-06 21:15 -29.47014 31.24242 3443 ft 188 kts 220°
2026-05-06 21:15 -29.48013 31.23376 3194 ft 174 kts 221°
2026-05-06 21:15 -29.48956 31.22558 2966 ft 162 kts 221°
2026-05-06 21:16 -29.49823 31.21803 2775 ft 156 kts 220°
2026-05-06 21:16 -29.50687 31.21053 2570 ft 152 kts 220°
2026-05-06 21:16 -29.51517 31.20332 2384 ft 148 kts 220°
2026-05-06 21:16 -29.52333 31.19623 2181 ft 147 kts 219°
2026-05-06 21:17 -29.53138 31.18923 1977 ft 145 kts 219°
2026-05-06 21:17 -29.53941 31.18226 1782 ft 144 kts 219°
2026-05-06 21:17 -29.54730 31.17540 1593 ft 144 kts 218°
2026-05-06 21:17 -29.55541 31.16835 1401 ft 144 kts 218°
2026-05-06 21:18 -29.56347 31.16134 1205 ft 144 kts 218°
2026-05-06 21:18 -29.57145 31.15441 1014 ft 143 kts 217°
2026-05-06 21:18 -29.57940 31.14754 827 ft 143 kts 217°
2026-05-06 21:18 -29.58727 31.14061 631 ft 142 kts 218°
2026-05-06 21:19 -29.59517 31.13375 414 ft 142 kts 217°
2026-05-06 21:19 -29.60036 31.12923 297 ft 142 kts 217°
2026-05-06 21:19 -29.60743 31.12308 281 ft 106 kts 217°
2026-05-06 21:19 -29.61198 31.11910 283 ft 63 kts 217°
2026-05-06 21:20 -29.61528 31.11625 284 ft 56 kts 217°
2026-05-06 21:20 -29.61823 31.11367 280 ft 52 kts 217°
2026-05-06 21:20 -29.62102 31.11124 282 ft 48 kts 217°
2026-05-06 21:20 -29.62363 31.10900 283 ft 41 kts 216°
2026-05-06 21:21 -29.62472 31.10744 283 ft 15 kts 307°
2026-05-06 21:21 -29.62400 31.10640 283 ft 18 kts 307°
2026-05-06 21:21 -29.62323 31.10524 280 ft 19 kts 308°
2026-05-06 21:21 -29.62235 31.10430 280 ft 15 kts 18°
2026-05-06 21:22 -29.62146 31.10505 280 ft 17 kts 38°
2026-05-06 21:22 -29.62072 31.10569 285 ft 5 kts 27°
2026-05-06 21:22 -29.62044 31.10546 280 ft 3 kts 306°
2026-05-06 21:22 -29.62043 31.10543 280 ft 0 kts 305°
2026-05-06 21:23 -29.62039 31.10536 284 ft 2 kts 303°
2026-05-06 21:23 -29.62031 31.10523 280 ft 2 kts 307°
2026-05-06 21:23 -29.62029 31.10521 286 ft 0 kts 307°